Location: Mesa Verde
(33.6055°N, 114.7275°W)
Time: 01:20:50
(UTC+00:00)

Envisat - Visible Passes

Search period start: 21 September 2021 00:00
Search period end: 01 October 2021 00:00
Orbit: 764 x 766 km, 98.2° (Epoch: 20 September)

Date Brightness Start Highest point End Pass type
(mag) Time Alt. Az. Time Alt. Az. Time Alt. Az.
21 Sep 5.9 11:34:32 10° ENE 11:37:16 14° E 11:40:00 10° SE visible
22 Sep 3.5 12:34:41 10° NNE 12:39:45 66° ESE 12:44:46 10° S visible
23 Sep 5.2 11:58:31 10° NE 12:02:47 27° E 12:07:02 10° SSE visible
24 Sep 6.2 11:24:33 10° ENE 11:25:39 11° E 11:26:45 10° ESE visible
24 Sep 3.0 13:00:01 10° N 13:05:03 67° WNW 13:10:04 10° SSW visible
25 Sep 4.0 12:23:17 10° NNE 12:28:13 50° E 12:33:07 10° S visible
26 Sep 5.6 11:47:26 10° NE 11:51:13 21° E 11:54:58 10° SE visible
27 Sep 3.0 12:48:28 10° NNE 12:53:34 87° W 12:58:38 10° SSW visible
28 Sep 4.5 12:11:57 10° NNE 12:16:41 38° E 12:21:22 10° SSE visible
29 Sep 5.9 11:36:34 10° NE 11:39:37 16° E 11:42:39 10° SE visible
30 Sep 3.3 12:36:58 10° NNE 12:42:04 72° ESE 12:47:06 10° S visible
